Time,TemperatureF,DewpointF,PressureIn,WindDirection,WindDirectionDegrees,WindSpeedMPH,WindSpeedGustMPH,Humidity,HourlyPrecipIn,Conditions,Clouds,dailyrainin,SoftwareType,DateUTC
2013-06-04 00:01:00,67.7,65.0,30.02,NNE,22,1.5,1.7,91,0.00,,FEW060,0.00,VWS V14.01,2013-06-04 04:01:00,
2013-06-04 00:06:00,67.7,65.0,30.02,NNE,22,1.5,1.5,91,0.00,,FEW060,0.00,VWS V14.01,2013-06-04 04:06:00,
2013-06-04 00:11:00,67.7,65.0,30.02,NNE,22,1.5,1.5,91,0.00,,FEW060,0.00,VWS V14.01,2013-06-04 04:11:00,
2013-06-04 00:16:00,67.5,64.8,29.99,NNE,22,1.5,1.5,91,0.00,,FEW060,0.00,VWS V14.01,2013-06-04 04:16:00,
2013-06-04 00:21:00,67.5,64.8,29.98,NNE,22,1.5,1.5,91,0.00,,FEW060,0.00,VWS V14.01,2013-06-04 04:21:00,
2013-06-04 00:26:00,67.3,64.6,30.02,NNE,22,1.5,1.5,91,0.00,,FEW060,0.00,VWS V14.01,2013-06-04 04:26:00,
2013-06-04 00:31:00,67.3,64.6,30.02,NNE,22,1.5,1.5,91,0.00,,FEW060,0.00,VWS V14.01,2013-06-04 04:31:00,
2013-06-04 00:36:00,67.3,64.6,30.02,NNE,22,1.5,1.5,91,0.00,,FEW060,0.00,VWS V14.01,2013-06-04 04:36:00,
2013-06-04 00:41:00,67.2,64.5,30.02,NE,45,1.5,1.5,91,0.00,,FEW060,0.00,VWS V14.01,2013-06-04 04:41:00,
2013-06-04 00:46:00,67.2,64.5,30.02,NE,45,1.5,1.5,91,0.00,,FEW060,0.00,VWS V14.01,2013-06-04 04:46:00,
2013-06-04 00:51:00,67.0,64.3,30.02,NE,45,1.5,1.5,91,0.00,,FEW060,0.00,VWS V14.01,2013-06-04 04:51:00,
2013-06-04 00:56:00,67.0,64.3,30.02,NE,45,1.5,1.5,91,0.00,,FEW060,0.00,VWS V14.01,2013-06-04 04:56:00,
2013-06-04 01:01:00,67.0,64.3,30.02,NE,45,1.5,1.5,91,0.00,,BKN100,0.00,VWS V14.01,2013-06-04 05:01:00,
2013-06-04 01:06:00,67.0,64.3,30.02,NE,45,1.5,1.5,91,0.00,,BKN100,0.00,VWS V14.01,2013-06-04 05:06:00,
2013-06-04 01:11:00,67.0,64.3,30.02,NE,45,1.5,1.5,91,0.00,,BKN100,0.00,VWS V14.01,2013-06-04 05:11:00,
2013-06-04 01:16:00,66.8,64.1,29.99,NE,45,1.5,1.5,91,0.00,,BKN100,0.00,VWS V14.01,2013-06-04 05:16:00,
2013-06-04 01:21:00,66.8,64.1,29.99,NE,45,1.5,1.5,91,0.00,,BKN100,0.00,VWS V14.01,2013-06-04 05:21:00,
2013-06-04 01:26:00,66.8,64.1,30.02,NE,45,1.5,1.5,91,0.00,,BKN100,0.00,VWS V14.01,2013-06-04 05:26:00,
2013-06-04 01:31:00,67.0,64.3,30.02,NE,45,1.5,1.5,91,0.00,,BKN100,0.00,VWS V14.01,2013-06-04 05:31:00,
2013-06-04 01:36:00,67.0,64.3,29.99,NE,45,1.5,1.5,91,0.00,,BKN100,0.00,VWS V14.01,2013-06-04 05:36:00,
2013-06-04 01:41:00,67.0,64.6,30.02,NE,45,1.5,1.5,92,0.00,,BKN100,0.00,VWS V14.01,2013-06-04 05:41:00,
2013-06-04 01:46:00,67.0,64.6,30.02,NE,45,1.5,1.5,92,0.00,,BKN100,0.00,VWS V14.01,2013-06-04 05:46:00,
2013-06-04 01:51:00,67.0,64.6,30.02,NE,45,1.5,1.5,92,0.00,,BKN100,0.00,VWS V14.01,2013-06-04 05:51:00,
2013-06-04 01:56:00,67.0,64.6,30.01,NE,45,1.5,1.5,92,0.00,,BKN100,0.00,VWS V14.01,2013-06-04 05:56:00,
2013-06-04 02:01:00,67.0,64.6,30.01,NE,45,1.5,1.5,92,0.00,,SCT031,0.00,VWS V14.01,2013-06-04 06:01:00,
2013-06-04 02:06:00,66.8,64.4,30.01,NNW,338,1.5,1.5,92,0.00,,SCT031,0.00,VWS V14.01,2013-06-04 06:06:00,
2013-06-04 02:11:00,66.8,64.4,30.02,NNW,338,1.5,1.5,92,0.00,,SCT031,0.00,VWS V14.01,2013-06-04 06:11:00,
2013-06-04 02:16:00,66.8,64.4,30.01,NNW,338,1.5,1.5,92,0.00,,SCT031,0.00,VWS V14.01,2013-06-04 06:16:00,
2013-06-04 02:21:00,66.8,64.4,30.01,NNE,22,1.9,1.9,92,0.00,,SCT031,0.00,VWS V14.01,2013-06-04 06:21:00,
2013-06-04 02:26:00,66.8,64.4,30.01,NNE,22,1.5,1.5,92,0.00,,SCT031,0.00,VWS V14.01,2013-06-04 06:26:00,
2013-06-04 02:32:00,66.6,64.2,30.01,ENE,68,1.5,1.5,92,0.00,,SCT031,0.00,VWS V14.01,2013-06-04 06:32:00,
2013-06-04 02:37:00,66.6,64.2,30.01,ENE,68,1.5,1.5,92,0.00,,SCT031,0.00,VWS V14.01,2013-06-04 06:37:00,
2013-06-04 02:42:00,66.4,64.0,30.01,ENE,68,1.5,1.5,92,0.00,,SCT031,0.00,VWS V14.01,2013-06-04 06:42:00,
2013-06-04 02:47:00,66.4,64.0,30.01,ENE,68,1.5,1.5,92,0.00,,SCT031,0.00,VWS V14.01,2013-06-04 06:47:00,
2013-06-04 02:52:00,66.4,64.0,29.97,ENE,68,1.5,1.5,92,0.00,,SCT031,0.00,VWS V14.01,2013-06-04 06:52:00,
2013-06-04 02:57:00,66.4,64.0,29.97,ENE,68,1.5,1.5,92,0.00,,SCT031,0.00,VWS V14.01,2013-06-04 06:57:00,
2013-06-04 03:02:00,66.3,63.9,30.01,ENE,68,1.5,1.5,92,0.00,,-RA,0.00,VWS V14.01,2013-06-04 07:02:00,
2013-06-04 03:07:00,66.3,63.9,30.01,ENE,68,1.5,1.5,92,0.00,,-RA,0.00,VWS V14.01,2013-06-04 07:07:00,
2013-06-04 03:12:00,66.3,63.9,30.01,ENE,68,1.5,1.5,92,0.00,,-RA,0.00,VWS V14.01,2013-06-04 07:12:00,
2013-06-04 03:17:00,66.3,63.9,30.01,SSW,202,1.7,2.2,92,0.00,,-RA,0.00,VWS V14.01,2013-06-04 07:17:00,
2013-06-04 03:22:00,66.4,64.3,29.97,South,180,1.5,1.5,93,0.00,,-RA,0.00,VWS V14.01,2013-06-04 07:22:00,
2013-06-04 03:27:00,66.3,64.2,30.01,South,180,1.5,1.5,93,0.00,,-RA,0.00,VWS V14.01,2013-06-04 07:27:00,
2013-06-04 03:32:00,66.3,64.2,30.01,South,180,1.5,1.5,93,0.00,,-RA,0.00,VWS V14.01,2013-06-04 07:32:00,
2013-06-04 03:37:00,66.4,64.3,30.01,South,180,1.5,1.5,93,0.00,,-RA,0.00,VWS V14.01,2013-06-04 07:37:00,
2013-06-04 03:42:00,66.4,64.3,30.00,South,180,1.5,1.5,93,0.00,,-RA,0.00,VWS V14.01,2013-06-04 07:42:00,
2013-06-04 03:47:00,66.4,64.3,30.00,South,180,1.5,1.5,93,0.00,,-RA,0.00,VWS V14.01,2013-06-04 07:47:00,
2013-06-04 03:52:00,66.4,64.3,30.00,South,180,1.5,1.5,93,0.00,,-RA,0.00,VWS V14.01,2013-06-04 07:52:00,
2013-06-04 03:57:00,66.6,64.5,30.00,South,180,1.5,1.5,93,0.00,,-RA,0.00,VWS V14.01,2013-06-04 07:57:00,
2013-06-04 04:02:00,66.6,64.5,30.00,South,180,1.5,1.5,93,0.00,,OVC095,0.00,VWS V14.01,2013-06-04 08:02:00,
2013-06-04 04:07:00,66.6,64.5,30.00,South,180,1.5,1.5,93,0.00,,OVC095,0.00,VWS V14.01,2013-06-04 08:07:00,
2013-06-04 04:12:00,66.6,64.5,30.00,South,180,1.5,1.5,93,0.00,,OVC095,0.00,VWS V14.01,2013-06-04 08:12:00,
2013-06-04 04:17:00,66.6,64.5,30.01,South,180,1.5,1.5,93,0.00,,OVC095,0.00,VWS V14.01,2013-06-04 08:17:00,
2013-06-04 04:22:00,66.6,64.5,30.01,SSW,202,1.5,1.5,93,0.00,,OVC095,0.00,VWS V14.01,2013-06-04 08:22:00,
2013-06-04 04:27:00,66.8,64.7,30.00,SSW,202,1.5,1.5,93,0.00,,OVC095,0.00,VWS V14.01,2013-06-04 08:27:00,
2013-06-04 04:32:00,66.6,64.5,30.00,SSW,202,1.5,1.5,93,0.00,,OVC034,0.00,VWS V14.01,2013-06-04 08:32:00,
2013-06-04 04:37:00,66.6,64.5,30.00,SSW,202,1.5,1.5,93,0.00,,OVC034,0.00,VWS V14.01,2013-06-04 08:37:00,
2013-06-04 04:42:00,66.6,64.5,30.00,SSW,202,1.5,1.5,93,0.00,,OVC034,0.00,VWS V14.01,2013-06-04 08:42:00,
2013-06-04 04:47:00,66.4,64.3,30.00,SSW,202,1.5,1.5,93,0.00,,OVC034,0.00,VWS V14.01,2013-06-04 08:47:00,
2013-06-04 04:52:00,66.4,64.3,30.01,WSW,248,1.7,1.7,93,0.00,,OVC034,0.00,VWS V14.01,2013-06-04 08:52:00,
2013-06-04 04:57:00,66.4,64.3,30.01,WNW,292,1.5,1.5,93,0.00,,OVC034,0.00,VWS V14.01,2013-06-04 08:57:00,
2013-06-04 05:02:00,66.6,64.5,30.01,ENE,68,1.5,1.5,93,0.00,,OVC034,0.00,VWS V14.01,2013-06-04 09:02:00,
2013-06-04 05:07:00,66.6,64.5,30.02,NW,315,1.5,2.2,93,0.00,,OVC034,0.00,VWS V14.01,2013-06-04 09:07:00,
2013-06-04 05:12:00,66.6,64.5,30.02,ENE,68,1.5,1.9,93,0.00,,OVC034,0.00,VWS V14.01,2013-06-04 09:12:00,
2013-06-04 05:17:00,66.8,64.7,30.02,NE,45,1.5,1.5,93,0.00,,OVC034,0.00,VWS V14.01,2013-06-04 09:17:00,
2013-06-04 05:22:00,66.8,64.7,30.02,NE,45,1.5,1.5,93,0.00,,OVC034,0.00,VWS V14.01,2013-06-04 09:22:00,
2013-06-04 05:27:00,67.0,64.9,30.02,SSE,158,2.2,2.2,93,0.00,,OVC034,0.00,VWS V14.01,2013-06-04 09:27:00,
2013-06-04 05:32:00,67.0,64.9,30.02,SE,135,1.5,1.5,93,0.00,,OVC034,0.00,VWS V14.01,2013-06-04 09:32:00,
2013-06-04 05:37:00,67.0,64.9,30.02,SE,135,1.5,1.5,93,0.00,,OVC034,0.00,VWS V14.01,2013-06-04 09:37:00,
2013-06-04 05:42:00,67.0,64.9,30.02,SE,135,1.5,1.5,93,0.00,,OVC034,0.00,VWS V14.01,2013-06-04 09:42:00,
2013-06-04 05:47:00,67.0,64.9,30.02,SE,135,1.5,1.5,93,0.00,,OVC034,0.00,VWS V14.01,2013-06-04 09:47:00,
2013-06-04 05:51:00,67.0,64.9,30.02,SE,135,1.5,1.5,93,0.00,,OVC034,0.00,VWS V14.01,2013-06-04 09:51:00,
2013-06-04 05:56:00,67.0,64.9,30.02,SE,135,1.5,1.5,93,0.00,,OVC034,0.00,VWS V14.01,2013-06-04 09:56:00,
2013-06-04 06:02:00,67.0,64.9,30.03,SE,135,1.5,1.5,93,0.00,,BKN100,0.00,VWS V14.01,2013-06-04 10:02:00,
2013-06-04 06:06:00,67.0,64.9,30.03,SE,135,1.5,1.5,93,0.00,,BKN100,0.00,VWS V14.01,2013-06-04 10:06:00,
2013-06-04 06:11:00,67.0,64.9,30.03,NE,45,2.6,2.6,93,0.00,,BKN100,0.00,VWS V14.01,2013-06-04 10:11:00,
2013-06-04 06:16:00,67.0,64.9,30.03,NE,45,1.5,1.5,93,0.00,,BKN100,0.00,VWS V14.01,2013-06-04 10:16:00,
2013-06-04 06:21:00,66.8,64.7,30.03,NE,45,1.5,1.5,93,0.00,,BKN100,0.00,VWS V14.01,2013-06-04 10:21:00,
2013-06-04 06:27:00,67.0,64.9,30.03,NE,45,1.5,1.5,93,0.00,,BKN100,0.00,VWS V14.01,2013-06-04 10:27:00,
2013-06-04 06:32:00,67.0,64.9,30.04,NE,45,1.5,1.5,93,0.00,,BKN100,0.00,VWS V14.01,2013-06-04 10:32:00,
2013-06-04 06:37:00,67.0,64.9,30.00,NE,45,1.5,1.5,93,0.00,,BKN100,0.00,VWS V14.01,2013-06-04 10:37:00,
2013-06-04 06:42:00,67.0,64.9,30.04,NE,45,1.9,1.9,93,0.00,,BKN100,0.00,VWS V14.01,2013-06-04 10:42:00,
2013-06-04 06:47:00,67.2,65.1,30.05,East,90,1.5,1.5,93,0.00,,BKN100,0.00,VWS V14.01,2013-06-04 10:47:00,
2013-06-04 06:52:00,67.2,65.1,30.05,East,90,1.5,1.5,93,0.00,,BKN100,0.00,VWS V14.01,2013-06-04 10:52:00,
2013-06-04 06:57:00,67.0,64.9,30.05,East,90,1.5,1.9,93,0.00,,BKN100,0.00,VWS V14.01,2013-06-04 10:57:00,
2013-06-04 07:02:00,67.2,65.1,30.05,ENE,68,2.6,2.6,93,0.00,,BKN050,0.00,VWS V14.01,2013-06-04 11:02:00,
2013-06-04 07:07:00,67.0,64.9,30.05,ENE,68,1.9,1.9,93,0.00,,BKN050,0.00,VWS V14.01,2013-06-04 11:07:00,
2013-06-04 07:12:00,67.2,65.1,30.05,NNE,22,1.5,1.5,93,0.00,,BKN050,0.00,VWS V14.01,2013-06-04 11:12:00,
2013-06-04 07:17:00,67.5,65.4,30.01,NNE,22,3.3,4.4,93,0.00,,BKN050,0.00,VWS V14.01,2013-06-04 11:17:00,
2013-06-04 07:22:00,67.9,65.8,30.05,ENE,68,1.5,1.9,93,0.00,,BKN050,0.00,VWS V14.01,2013-06-04 11:22:00,
2013-06-04 07:27:00,68.4,66.0,30.05,NE,45,1.9,2.4,92,0.00,,BKN050,0.00,VWS V14.01,2013-06-04 11:27:00,
2013-06-04 07:32:00,68.6,66.2,30.06,ESE,112,1.9,3.3,92,0.00,,BKN050,0.00,VWS V14.01,2013-06-04 11:32:00,
2013-06-04 07:37:00,69.0,66.3,30.06,NE,45,1.9,3.5,91,0.00,,BKN050,0.00,VWS V14.01,2013-06-04 11:37:00,
2013-06-04 07:42:00,69.3,66.6,30.06,ESE,112,2.2,3.7,91,0.00,,BKN050,0.00,VWS V14.01,2013-06-04 11:42:00,
2013-06-04 07:47:00,69.5,66.4,30.06,ENE,68,3.3,3.3,90,0.00,,BKN050,0.00,VWS V14.01,2013-06-04 11:47:00,
2013-06-04 07:52:00,69.5,66.4,30.02,ENE,68,3.3,3.3,90,0.00,,BKN050,0.00,VWS V14.01,2013-06-04 11:52:00,
2013-06-04 07:57:00,69.7,66.6,30.02,ENE,68,3.7,3.7,90,0.00,,BKN050,0.00,VWS V14.01,2013-06-04 11:57:00,
2013-06-04 08:02:00,69.9,66.5,30.06,NE,45,3.5,3.5,89,0.00,,SCT140,0.00,VWS V14.01,2013-06-04 12:02:00,
2013-06-04 08:07:00,70.6,66.9,30.02,NE,45,2.6,2.6,88,0.00,,SCT140,0.00,VWS V14.01,2013-06-04 12:07:00,
2013-06-04 08:12:00,70.6,66.9,30.06,ENE,68,4.9,4.9,88,0.00,,SCT140,0.00,VWS V14.01,2013-06-04 12:12:00,
2013-06-04 08:17:00,70.9,66.8,30.06,NE,45,2.6,2.6,87,0.00,,SCT140,0.00,VWS V14.01,2013-06-04 12:17:00,
2013-06-04 08:22:00,71.3,66.9,30.02,East,90,1.9,3.7,86,0.00,,SCT140,0.00,VWS V14.01,2013-06-04 12:22:00,
2013-06-04 08:27:00,71.5,67.1,30.06,NE,45,6.4,6.4,86,0.00,,SCT140,0.00,VWS V14.01,2013-06-04 12:27:00,
2013-06-04 08:32:00,72.0,66.9,30.06,ESE,112,2.8,2.8,84,0.00,,SCT140,0.00,VWS V14.01,2013-06-04 12:32:00,
2013-06-04 08:37:00,72.2,67.4,30.07,NNE,22,4.9,4.9,85,0.00,,SCT140,0.00,VWS V14.01,2013-06-04 12:37:00,
2013-06-04 08:42:00,72.7,67.6,30.07,NE,45,3.5,5.1,84,0.00,,SCT140,0.00,VWS V14.01,2013-06-04 12:42:00,
2013-06-04 08:47:00,73.1,66.9,30.07,ESE,112,5.5,5.5,81,0.00,,SCT140,0.00,VWS V14.01,2013-06-04 12:47:00,
2013-06-04 08:52:00,73.3,66.7,30.07,North,0,3.7,4.4,80,0.00,,SCT140,0.00,VWS V14.01,2013-06-04 12:52:00,
2013-06-04 08:57:00,73.5,66.9,30.07,ESE,112,3.3,4.0,80,0.00,,SCT140,0.00,VWS V14.01,2013-06-04 12:57:00,
2013-06-04 09:02:00,73.8,66.5,30.04,NE,45,3.3,4.9,78,0.00,,BKN090,0.00,VWS V14.01,2013-06-04 13:02:00,
2013-06-04 09:07:00,73.8,65.7,30.04,East,90,2.6,3.7,76,0.00,,BKN090,0.00,VWS V14.01,2013-06-04 13:07:00,
2013-06-04 09:12:00,73.8,66.5,30.04,NE,45,1.9,3.3,78,0.00,,BKN090,0.00,VWS V14.01,2013-06-04 13:12:00,
2013-06-04 09:17:00,74.3,67.1,30.08,NE,45,4.2,4.2,78,0.00,,BKN090,0.00,VWS V14.01,2013-06-04 13:17:00,
2013-06-04 09:22:00,74.4,66.8,30.08,NNE,22,1.9,2.6,77,0.00,,BKN090,0.00,VWS V14.01,2013-06-04 13:22:00,
2013-06-04 09:27:00,74.8,66.4,30.08,NNE,22,5.1,5.1,75,0.00,,BKN090,0.00,VWS V14.01,2013-06-04 13:27:00,
2013-06-04 09:32:00,75.0,66.6,30.04,NE,45,4.9,4.9,75,0.00,,BKN090,0.00,VWS V14.01,2013-06-04 13:32:00,
2013-06-04 09:37:00,75.3,65.7,30.05,ENE,68,5.1,5.1,72,0.00,,BKN090,0.00,VWS V14.01,2013-06-04 13:37:00,
2013-06-04 09:42:00,75.2,66.4,30.04,NE,45,2.4,4.0,74,0.00,,BKN090,0.00,VWS V14.01,2013-06-04 13:42:00,
2013-06-04 09:47:00,75.2,66.4,30.08,SE,135,2.6,3.3,74,0.00,,BKN090,0.00,VWS V14.01,2013-06-04 13:47:00,
2013-06-04 09:52:00,75.5,66.3,30.09,ENE,68,1.5,5.5,73,0.00,,BKN090,0.00,VWS V14.01,2013-06-04 13:52:00,
2013-06-04 09:57:00,75.5,65.5,30.09,North,0,3.3,4.0,71,0.00,,BKN090,0.00,VWS V14.01,2013-06-04 13:57:00,
2013-06-04 10:02:00,75.5,65.9,30.08,ESE,112,4.2,4.4,72,0.00,,SCT250,0.00,VWS V14.01,2013-06-04 14:02:00,
2013-06-04 10:07:00,75.9,66.7,30.05,NE,45,2.6,3.3,73,0.00,,SCT250,0.00,VWS V14.01,2013-06-04 14:07:00,
2013-06-04 10:11:00,76.2,66.2,30.09,NE,45,3.1,3.1,71,0.00,,SCT250,0.00,VWS V14.01,2013-06-04 14:11:00,
2013-06-04 10:17:00,76.8,66.7,30.05,SE,135,3.3,3.3,71,0.00,,SCT250,0.00,VWS V14.01,2013-06-04 14:17:00,
2013-06-04 10:22:00,76.6,65.7,30.09,SE,135,2.6,2.6,69,0.00,,SCT250,0.00,VWS V14.01,2013-06-04 14:22:00,
2013-06-04 10:27:00,76.6,66.1,30.09,ENE,68,5.3,5.3,70,0.00,,SCT250,0.00,VWS V14.01,2013-06-04 14:27:00,
2013-06-04 10:32:00,77.0,66.5,30.09,East,90,2.8,2.8,70,0.00,,SCT250,0.00,VWS V14.01,2013-06-04 14:32:00,
2013-06-04 10:37:00,77.0,66.9,30.08,NNE,22,5.5,5.5,71,0.00,,SCT250,0.00,VWS V14.01,2013-06-04 14:37:00,
2013-06-04 10:42:00,77.1,66.6,30.09,North,0,2.8,2.8,70,0.00,,SCT250,0.00,VWS V14.01,2013-06-04 14:42:00,
2013-06-04 10:47:00,77.1,67.0,30.09,NNE,22,2.2,2.2,71,0.00,,SCT250,0.00,VWS V14.01,2013-06-04 14:47:00,
2013-06-04 10:52:00,77.0,66.9,30.09,SE,135,1.7,2.6,71,0.00,,SCT250,0.00,VWS V14.01,2013-06-04 14:52:00,
2013-06-04 10:57:00,77.1,67.0,30.09,South,180,1.7,2.6,71,0.00,,SCT250,0.00,VWS V14.01,2013-06-04 14:57:00,
2013-06-04 11:02:00,77.3,67.2,30.09,NNE,22,3.5,4.0,71,0.00,,SCT250,0.00,VWS V14.01,2013-06-04 15:02:00,
2013-06-04 11:07:00,78.4,68.2,30.05,NE,45,2.4,3.7,71,0.00,,SCT250,0.00,VWS V14.01,2013-06-04 15:07:00,
2013-06-04 11:12:00,78.6,67.2,30.05,North,0,2.2,6.4,68,0.00,,SCT250,0.00,VWS V14.01,2013-06-04 15:12:00,
2013-06-04 11:17:00,78.8,66.9,30.09,NE,45,5.8,5.8,67,0.00,,SCT250,0.00,VWS V14.01,2013-06-04 15:17:00,
2013-06-04 11:22:00,78.8,67.8,30.06,NE,45,4.9,4.9,69,0.00,,SCT250,0.00,VWS V14.01,2013-06-04 15:22:00,
2013-06-04 11:27:00,78.6,66.7,30.06,SE,135,1.9,3.3,67,0.00,,SCT250,0.00,VWS V14.01,2013-06-04 15:27:00,
2013-06-04 11:32:00,78.6,67.2,30.10,NE,45,6.2,6.2,68,0.00,,SCT250,0.00,VWS V14.01,2013-06-04 15:32:00,
2013-06-04 11:37:00,78.6,67.2,30.10,NE,45,2.4,2.4,68,0.00,,SCT250,0.00,VWS V14.01,2013-06-04 15:37:00,
2013-06-04 11:42:00,78.8,66.9,30.10,North,0,3.5,3.5,67,0.00,,SCT250,0.00,VWS V14.01,2013-06-04 15:42:00,
2013-06-04 11:47:00,79.3,67.4,30.10,SE,135,1.9,1.9,67,0.00,,SCT250,0.00,VWS V14.01,2013-06-04 15:47:00,
2013-06-04 11:52:00,79.5,68.0,30.10,North,0,4.0,4.0,68,0.00,,SCT250,0.00,VWS V14.01,2013-06-04 15:52:00,
2013-06-04 11:57:00,79.8,67.4,30.11,NE,45,4.2,4.2,66,0.00,,SCT250,0.00,VWS V14.01,2013-06-04 15:57:00,
2013-06-04 12:02:00,80.0,67.2,30.07,East,90,2.6,2.6,65,0.00,,SCT035,0.00,VWS V14.01,2013-06-04 16:02:00,
2013-06-04 12:07:00,80.0,67.6,30.11,ESE,112,2.8,2.8,66,0.00,,SCT035,0.00,VWS V14.01,2013-06-04 16:07:00,
2013-06-04 12:12:00,79.8,67.0,30.10,NNE,22,2.4,3.3,65,0.00,,SCT035,0.00,VWS V14.01,2013-06-04 16:12:00,
2013-06-04 12:17:00,79.8,66.5,30.10,NE,45,5.3,5.3,64,0.00,,SCT035,0.00,VWS V14.01,2013-06-04 16:17:00,
2013-06-04 12:22:00,80.0,67.6,30.07,NNE,22,3.3,3.3,66,0.00,,SCT035,0.00,VWS V14.01,2013-06-04 16:22:00,
2013-06-04 12:27:00,80.2,67.8,30.10,SE,135,2.2,2.2,66,0.00,,SCT035,0.00,VWS V14.01,2013-06-04 16:27:00,
2013-06-04 12:32:00,80.2,67.4,30.11,SE,135,2.8,2.8,65,0.00,,SCT035,0.00,VWS V14.01,2013-06-04 16:32:00,
2013-06-04 12:37:00,80.2,66.9,30.11,ESE,112,2.6,2.6,64,0.00,,SCT035,0.00,VWS V14.01,2013-06-04 16:37:00,
2013-06-04 12:42:00,80.6,67.7,30.10,North,0,3.5,3.5,65,0.00,,SCT035,0.00,VWS V14.01,2013-06-04 16:42:00,
2013-06-04 12:47:00,80.9,67.6,30.10,NE,45,6.9,6.9,64,0.00,,SCT035,0.00,VWS V14.01,2013-06-04 16:47:00,
2013-06-04 12:52:00,81.3,67.9,30.10,NNE,22,3.3,3.3,64,0.00,,SCT035,0.00,VWS V14.01,2013-06-04 16:52:00,
2013-06-04 12:57:00,81.6,67.3,30.10,SE,135,3.1,3.1,62,0.00,,SCT035,0.00,VWS V14.01,2013-06-04 16:57:00,
2013-06-04 13:02:00,81.8,67.5,30.09,East,90,2.6,7.5,62,0.00,,BKN040,0.00,VWS V14.01,2013-06-04 17:02:00,
2013-06-04 13:07:00,82.4,68.5,30.09,SSW,202,3.7,4.0,63,0.00,,BKN040,0.00,VWS V14.01,2013-06-04 17:07:00,
2013-06-04 13:12:00,81.6,67.3,30.09,East,90,3.5,3.5,62,0.00,,BKN040,0.00,VWS V14.01,2013-06-04 17:12:00,
2013-06-04 13:17:00,81.5,68.1,30.09,SE,135,1.9,1.9,64,0.00,,BKN040,0.00,VWS V14.01,2013-06-04 17:17:00,
2013-06-04 13:22:00,81.1,67.8,30.08,East,90,3.1,3.1,64,0.00,,BKN040,0.00,VWS V14.01,2013-06-04 17:22:00,
2013-06-04 13:27:00,80.7,67.4,30.09,East,90,2.6,3.3,64,0.00,,BKN040,0.00,VWS V14.01,2013-06-04 17:27:00,
2013-06-04 13:32:00,80.4,67.6,30.09,East,90,2.6,2.6,65,0.00,,BKN040,0.00,VWS V14.01,2013-06-04 17:32:00,
2013-06-04 13:37:00,80.4,67.1,30.09,NE,45,2.6,2.6,64,0.00,,BKN040,0.00,VWS V14.01,2013-06-04 17:37:00,
2013-06-04 13:42:00,80.6,67.7,30.09,North,0,4.0,4.0,65,0.00,,BKN040,0.00,VWS V14.01,2013-06-04 17:42:00,
2013-06-04 13:47:00,80.7,68.3,30.09,NNE,22,3.3,3.3,66,0.00,,BKN040,0.00,VWS V14.01,2013-06-04 17:47:00,
2013-06-04 13:52:00,81.5,68.6,30.08,NE,45,2.6,2.6,65,0.00,,BKN040,0.00,VWS V14.01,2013-06-04 17:52:00,
2013-06-04 13:57:00,81.8,68.0,30.08,NE,45,6.2,6.2,63,0.00,,BKN040,0.00,VWS V14.01,2013-06-04 17:57:00,
2013-06-04 14:02:00,82.2,67.9,30.08,NNE,22,3.1,3.1,62,0.00,,BKN075,0.00,VWS V14.01,2013-06-04 18:02:00,
2013-06-04 14:07:00,82.4,68.5,30.08,SW,225,2.4,2.4,63,0.00,,BKN075,0.00,VWS V14.01,2013-06-04 18:07:00,
2013-06-04 14:12:00,82.0,68.2,30.08,NNE,22,3.7,3.7,63,0.00,,BKN075,0.00,VWS V14.01,2013-06-04 18:12:00,
2013-06-04 14:17:00,81.6,67.3,30.08,NE,45,1.9,1.9,62,0.00,,BKN075,0.00,VWS V14.01,2013-06-04 18:17:00,
2013-06-04 14:22:00,81.1,66.8,30.08,ENE,68,2.6,2.6,62,0.00,,BKN075,0.00,VWS V14.01,2013-06-04 18:22:00,
2013-06-04 14:27:00,80.9,67.1,30.04,ESE,112,3.3,3.3,63,0.00,,BKN075,0.00,VWS V14.01,2013-06-04 18:27:00,
2013-06-04 14:32:00,80.9,67.6,30.07,NE,45,1.9,1.9,64,0.00,,BKN075,0.00,VWS V14.01,2013-06-04 18:32:00,
2013-06-04 14:37:00,80.6,67.3,30.04,ENE,68,4.2,4.2,64,0.00,,BKN075,0.00,VWS V14.01,2013-06-04 18:37:00,
2013-06-04 14:42:00,80.6,67.7,30.07,NNE,22,4.9,4.9,65,0.00,,BKN075,0.00,VWS V14.01,2013-06-04 18:42:00,
2013-06-04 14:47:00,80.2,66.9,30.07,East,90,1.7,1.7,64,0.00,,BKN075,0.00,VWS V14.01,2013-06-04 18:47:00,
2013-06-04 14:52:00,80.2,67.4,30.07,NE,45,1.5,4.4,65,0.00,,BKN075,0.00,VWS V14.01,2013-06-04 18:52:00,
2013-06-04 14:57:00,80.6,68.2,30.07,NE,45,3.1,3.1,66,0.00,,BKN075,0.00,VWS V14.01,2013-06-04 18:57:00,
2013-06-04 15:02:00,80.9,68.0,30.07,ENE,68,2.8,2.8,65,0.00,,BKN045,0.00,VWS V14.01,2013-06-04 19:02:00,
2013-06-04 15:07:00,81.3,68.4,30.07,NE,45,3.3,5.5,65,0.00,,BKN045,0.00,VWS V14.01,2013-06-04 19:07:00,
2013-06-04 15:12:00,81.3,67.9,30.07,NNE,22,2.8,4.4,64,0.00,,BKN045,0.00,VWS V14.01,2013-06-04 19:12:00,
2013-06-04 15:17:00,82.4,69.4,30.07,ESE,112,1.7,1.7,65,0.00,,BKN045,0.00,VWS V14.01,2013-06-04 19:17:00,
2013-06-04 15:22:00,82.5,69.1,30.07,ENE,68,2.8,2.8,64,0.00,,BKN045,0.00,VWS V14.01,2013-06-04 19:22:00,
2013-06-04 15:27:00,83.1,68.7,30.07,NE,45,5.8,5.8,62,0.00,,BKN045,0.00,VWS V14.01,2013-06-04 19:27:00,
2013-06-04 15:32:00,82.4,68.1,30.07,NE,45,6.6,6.6,62,0.00,,BKN045,0.00,VWS V14.01,2013-06-04 19:32:00,
2013-06-04 15:37:00,81.8,67.0,30.07,ENE,68,4.0,4.0,61,0.00,,BKN045,0.00,VWS V14.01,2013-06-04 19:37:00,
2013-06-04 15:42:00,81.8,68.0,30.07,North,0,2.8,2.8,63,0.00,,BKN045,0.00,VWS V14.01,2013-06-04 19:42:00,
2013-06-04 15:47:00,81.8,67.5,30.07,NNE,22,7.3,7.3,62,0.00,,BKN045,0.00,VWS V14.01,2013-06-04 19:47:00,
2013-06-04 15:52:00,82.4,68.5,30.07,SE,135,1.5,3.3,63,0.00,,BKN045,0.00,VWS V14.01,2013-06-04 19:52:00,
2013-06-04 15:57:00,82.4,68.5,30.07,North,0,1.7,2.2,63,0.00,,BKN045,0.00,VWS V14.01,2013-06-04 19:57:00,
2013-06-04 16:02:00,82.5,68.6,30.07,NNW,338,2.2,2.2,63,0.00,,BKN048,0.00,VWS V14.01,2013-06-04 20:02:00,
2013-06-04 16:07:00,82.4,68.5,30.03,NNE,22,1.9,2.6,63,0.00,,BKN048,0.00,VWS V14.01,2013-06-04 20:07:00,
2013-06-04 16:12:00,82.5,68.2,30.07,SE,135,1.5,1.5,62,0.00,,BKN048,0.00,VWS V14.01,2013-06-04 20:12:00,
2013-06-04 16:17:00,82.7,68.8,30.07,SE,135,1.7,2.8,63,0.00,,BKN048,0.00,VWS V14.01,2013-06-04 20:17:00,
2013-06-04 16:22:00,82.5,66.7,30.07,ENE,68,1.9,1.9,59,0.00,,BKN048,0.00,VWS V14.01,2013-06-04 20:22:00,
2013-06-04 16:27:00,82.5,66.2,30.07,SSE,158,2.6,2.6,58,0.00,,BKN048,0.00,VWS V14.01,2013-06-04 20:27:00,
2013-06-04 16:32:00,82.5,66.7,30.07,SE,135,1.9,1.9,59,0.00,,BKN048,0.00,VWS V14.01,2013-06-04 20:32:00,
2013-06-04 16:37:00,82.7,67.4,30.06,North,0,3.3,3.3,60,0.00,,BKN048,0.00,VWS V14.01,2013-06-04 20:37:00,
2013-06-04 16:42:00,82.9,67.6,30.06,SE,135,2.6,2.6,60,0.00,,BKN048,0.00,VWS V14.01,2013-06-04 20:42:00,
2013-06-04 16:47:00,83.4,68.0,30.06,ENE,68,1.5,2.6,60,0.00,,BKN048,0.00,VWS V14.01,2013-06-04 20:47:00,
2013-06-04 16:52:00,83.6,67.7,30.06,NE,45,4.0,4.0,59,0.00,,BKN048,0.00,VWS V14.01,2013-06-04 20:52:00,
2013-06-04 16:57:00,83.4,67.5,30.06,WSW,248,2.4,2.4,59,0.00,,BKN048,0.00,VWS V14.01,2013-06-04 20:57:00,
2013-06-04 17:02:00,83.4,68.0,30.06,SSE,158,1.9,3.7,60,0.00,,BKN085,0.00,VWS V14.01,2013-06-04 21:02:00,
2013-06-04 17:07:00,83.4,68.0,30.02,SE,135,2.6,3.5,60,0.00,,BKN085,0.00,VWS V14.01,2013-06-04 21:07:00,
2013-06-04 17:12:00,83.6,68.2,30.06,NNE,22,4.9,4.9,60,0.00,,BKN085,0.00,VWS V14.01,2013-06-04 21:12:00,
2013-06-04 17:17:00,83.6,68.2,30.06,East,90,4.0,4.9,60,0.00,,BKN085,0.00,VWS V14.01,2013-06-04 21:17:00,
2013-06-04 17:22:00,83.4,68.0,30.06,East,90,2.6,4.9,60,0.00,,BKN085,0.00,VWS V14.01,2013-06-04 21:22:00,
2013-06-04 17:27:00,82.9,68.1,30.06,NNE,22,5.3,5.3,61,0.00,,BKN085,0.00,VWS V14.01,2013-06-04 21:27:00,
2013-06-04 17:32:00,82.9,68.1,30.05,NE,45,3.3,3.3,61,0.00,,BKN085,0.00,VWS V14.01,2013-06-04 21:32:00,
2013-06-04 17:37:00,82.9,68.1,30.05,NE,45,4.9,4.9,61,0.00,,BKN085,0.00,VWS V14.01,2013-06-04 21:37:00,
2013-06-04 17:42:00,83.1,68.7,30.06,ESE,112,2.8,2.8,62,0.00,,BKN085,0.00,VWS V14.01,2013-06-04 21:42:00,
2013-06-04 17:47:00,82.2,66.9,30.05,NE,45,4.2,4.2,60,0.00,,BKN085,0.00,VWS V14.01,2013-06-04 21:47:00,
2013-06-04 17:52:00,81.6,66.8,30.05,ENE,68,2.2,2.2,61,0.00,,BKN085,0.00,VWS V14.01,2013-06-04 21:52:00,
2013-06-04 17:57:00,81.3,66.6,30.05,NE,45,4.6,4.6,61,0.00,,BKN085,0.00,VWS V14.01,2013-06-04 21:57:00,
2013-06-04 18:02:00,81.1,66.8,30.05,NE,45,2.2,2.2,62,0.00,,BKN075,0.00,VWS V14.01,2013-06-04 22:02:00,
2013-06-04 18:07:00,80.7,66.5,30.05,NNE,22,3.5,3.5,62,0.00,,BKN075,0.00,VWS V14.01,2013-06-04 22:07:00,
2013-06-04 18:12:00,80.7,66.5,30.05,East,90,2.2,2.8,62,0.00,,BKN075,0.00,VWS V14.01,2013-06-04 22:12:00,
2013-06-04 18:17:00,80.7,66.9,30.05,ENE,68,1.5,1.5,63,0.00,,BKN075,0.00,VWS V14.01,2013-06-04 22:17:00,
2013-06-04 18:22:00,80.6,66.8,30.05,East,90,1.9,1.9,63,0.00,,BKN075,0.00,VWS V14.01,2013-06-04 22:22:00,
2013-06-04 18:27:00,80.6,66.8,30.06,SE,135,1.7,1.7,63,0.00,,BKN075,0.00,VWS V14.01,2013-06-04 22:27:00,
2013-06-04 18:32:00,80.2,66.9,30.06,SE,135,2.2,2.2,64,0.00,,BKN075,0.00,VWS V14.01,2013-06-04 22:32:00,
2013-06-04 18:37:00,79.8,67.0,30.05,East,90,1.5,1.5,65,0.00,,BKN075,0.00,VWS V14.01,2013-06-04 22:37:00,
2013-06-04 18:42:00,79.8,67.0,30.06,ENE,68,2.6,2.6,65,0.00,,BKN075,0.00,VWS V14.01,2013-06-04 22:42:00,
2013-06-04 18:47:00,79.7,66.9,30.06,ESE,112,1.9,1.9,65,0.00,,BKN075,0.00,VWS V14.01,2013-06-04 22:47:00,
2013-06-04 18:52:00,79.5,67.2,30.06,North,0,4.9,4.9,66,0.00,,BKN075,0.00,VWS V14.01,2013-06-04 22:52:00,
2013-06-04 18:57:00,79.5,67.2,30.06,ESE,112,1.9,1.9,66,0.00,,BKN075,0.00,VWS V14.01,2013-06-04 22:57:00,
2013-06-04 19:02:00,79.3,67.0,30.06,ESE,112,2.6,2.6,66,0.00,,BKN065,0.00,VWS V14.01,2013-06-04 23:02:00,
2013-06-04 19:07:00,79.3,67.0,30.07,NE,45,1.9,1.9,66,0.00,,BKN065,0.00,VWS V14.01,2013-06-04 23:07:00,
2013-06-04 19:12:00,79.1,66.8,30.07,North,0,1.5,1.5,66,0.00,,BKN065,0.00,VWS V14.01,2013-06-04 23:12:00,
2013-06-04 19:17:00,78.9,66.6,30.07,ESE,112,1.9,1.9,66,0.00,,BKN065,0.00,VWS V14.01,2013-06-04 23:17:00,
2013-06-04 19:22:00,78.9,66.6,30.07,ESE,112,1.5,1.5,66,0.00,,BKN065,0.00,VWS V14.01,2013-06-04 23:22:00,
2013-06-04 19:27:00,78.9,66.6,30.07,SSE,158,1.5,1.7,66,0.00,,BKN065,0.00,VWS V14.01,2013-06-04 23:27:00,
2013-06-04 19:32:00,79.1,66.8,30.07,ESE,112,2.2,2.2,66,0.00,,BKN065,0.00,VWS V14.01,2013-06-04 23:32:00,
2013-06-04 19:37:00,79.1,66.8,30.07,ESE,112,2.4,2.4,66,0.00,,BKN065,0.00,VWS V14.01,2013-06-04 23:37:00,
2013-06-04 19:42:00,79.1,66.8,30.07,ENE,68,4.2,4.2,66,0.00,,BKN065,0.00,VWS V14.01,2013-06-04 23:42:00,
2013-06-04 19:47:00,79.3,67.0,30.07,SE,135,1.5,1.5,66,0.00,,BKN065,0.00,VWS V14.01,2013-06-04 23:47:00,
2013-06-04 19:52:00,78.9,67.0,30.04,NE,45,1.5,1.5,67,0.00,,BKN065,0.00,VWS V14.01,2013-06-04 23:52:00,
2013-06-04 19:57:00,78.8,66.9,30.04,NNE,22,2.8,2.8,67,0.00,,BKN065,0.00,VWS V14.01,2013-06-04 23:57:00,
2013-06-04 20:02:00,78.4,67.0,30.08,East,90,2.6,2.6,68,0.00,,BKN180,0.00,VWS V14.01,2013-06-05 00:02:00,
2013-06-04 20:07:00,78.4,67.0,30.08,East,90,2.6,2.6,68,0.00,,BKN180,0.00,VWS V14.01,2013-06-05 00:07:00,
2013-06-04 20:12:00,78.0,66.6,30.08,NNE,22,3.3,3.3,68,0.00,,BKN180,0.00,VWS V14.01,2013-06-05 00:12:00,
2013-06-04 20:17:00,78.0,67.0,30.08,East,90,1.9,1.9,69,0.00,,BKN180,0.00,VWS V14.01,2013-06-05 00:17:00,
2013-06-04 20:22:00,77.7,66.7,30.08,NNE,22,4.0,4.0,69,0.00,,BKN180,0.00,VWS V14.01,2013-06-05 00:22:00,
2013-06-04 20:27:00,77.5,67.0,30.09,ESE,112,2.2,2.2,70,0.00,,BKN180,0.00,VWS V14.01,2013-06-05 00:27:00,
2013-06-04 20:32:00,77.3,66.8,30.09,NE,45,3.3,4.9,70,0.00,,BKN180,0.00,VWS V14.01,2013-06-05 00:32:00,
2013-06-04 20:37:00,77.1,66.6,30.09,ENE,68,1.9,1.9,70,0.00,,BKN180,0.00,VWS V14.01,2013-06-05 00:37:00,
2013-06-04 20:42:00,77.0,66.9,30.09,ESE,112,3.3,3.3,71,0.00,,BKN180,0.00,VWS V14.01,2013-06-05 00:42:00,
2013-06-04 20:47:00,76.8,66.7,30.10,NE,45,3.3,3.3,71,0.00,,BKN180,0.00,VWS V14.01,2013-06-05 00:47:00,
2013-06-04 20:52:00,76.6,66.5,30.10,NNE,22,6.0,6.0,71,0.00,,BKN180,0.00,VWS V14.01,2013-06-05 00:52:00,
2013-06-04 20:57:00,76.4,66.3,30.10,East,90,2.6,4.9,71,0.00,,BKN180,0.00,VWS V14.01,2013-06-05 00:57:00,
2013-06-04 21:02:00,76.2,66.6,30.10,ESE,112,1.5,2.6,72,0.00,,SCT180,0.00,VWS V14.01,2013-06-05 01:02:00,
2013-06-04 21:07:00,76.2,66.6,30.10,North,0,4.0,4.0,72,0.00,,SCT180,0.00,VWS V14.01,2013-06-05 01:07:00,
2013-06-04 21:12:00,76.2,66.6,30.10,ESE,112,1.5,1.5,72,0.00,,SCT180,0.00,VWS V14.01,2013-06-05 01:12:00,
2013-06-04 21:17:00,76.1,66.5,30.10,SE,135,2.8,2.8,72,0.00,,SCT180,0.00,VWS V14.01,2013-06-05 01:17:00,
2013-06-04 21:22:00,75.9,66.3,30.10,East,90,1.9,1.9,72,0.00,,SCT180,0.00,VWS V14.01,2013-06-05 01:22:00,
2013-06-04 21:27:00,75.9,66.3,30.10,NNE,22,1.5,1.5,72,0.00,,SCT180,0.00,VWS V14.01,2013-06-05 01:27:00,
2013-06-04 21:32:00,75.7,66.5,30.11,East,90,2.2,2.2,73,0.00,,SCT180,0.00,VWS V14.01,2013-06-05 01:32:00,
2013-06-04 21:37:00,75.5,66.3,30.11,ENE,68,1.5,1.5,73,0.00,,SCT180,0.00,VWS V14.01,2013-06-05 01:37:00,
2013-06-04 21:42:00,75.3,66.1,30.11,East,90,1.5,2.8,73,0.00,,SCT180,0.00,VWS V14.01,2013-06-05 01:42:00,
2013-06-04 21:47:00,75.3,66.1,30.11,NNE,22,1.7,1.7,73,0.00,,SCT180,0.00,VWS V14.01,2013-06-05 01:47:00,
2013-06-04 21:52:00,75.0,66.2,30.11,NNE,22,1.9,1.9,74,0.00,,SCT180,0.00,VWS V14.01,2013-06-05 01:52:00,
2013-06-04 21:57:00,75.0,66.2,30.11,North,0,5.3,5.3,74,0.00,,SCT180,0.00,VWS V14.01,2013-06-05 01:57:00,
2013-06-04 22:02:00,74.8,66.0,30.12,ENE,68,2.8,2.8,74,0.00,,FEW060,0.00,VWS V14.01,2013-06-05 02:02:00,
2013-06-04 22:07:00,74.7,66.2,30.12,NE,45,1.9,3.3,75,0.00,,FEW060,0.00,VWS V14.01,2013-06-05 02:07:00,
2013-06-04 22:12:00,74.4,66.0,30.12,SE,135,2.6,3.7,75,0.00,,FEW060,0.00,VWS V14.01,2013-06-05 02:12:00,
2013-06-04 22:17:00,74.3,65.9,30.11,NE,45,3.1,4.9,75,0.00,,FEW060,0.00,VWS V14.01,2013-06-05 02:17:00,
2013-06-04 22:22:00,74.2,65.7,30.12,NNE,22,2.4,2.4,75,0.00,,FEW060,0.00,VWS V14.01,2013-06-05 02:22:00,
2013-06-04 22:27:00,73.9,65.5,30.11,ENE,68,1.9,1.9,75,0.00,,FEW060,0.00,VWS V14.01,2013-06-05 02:27:00,
2013-06-04 22:32:00,73.8,65.3,30.11,NNE,22,2.4,2.4,75,0.00,,FEW060,0.00,VWS V14.01,2013-06-05 02:32:00,
2013-06-04 22:37:00,73.6,65.5,30.11,WSW,248,1.7,2.8,76,0.00,,FEW060,0.00,VWS V14.01,2013-06-05 02:37:00,
2013-06-04 22:42:00,73.6,65.5,30.12,NE,45,2.2,2.2,76,0.00,,FEW060,0.00,VWS V14.01,2013-06-05 02:42:00,
2013-06-04 22:47:00,73.3,65.2,30.08,NNE,22,4.6,4.6,76,0.00,,FEW060,0.00,VWS V14.01,2013-06-05 02:47:00,
2013-06-04 22:52:00,73.3,65.6,30.11,ENE,68,2.8,2.8,77,0.00,,FEW060,0.00,VWS V14.01,2013-06-05 02:52:00,
2013-06-04 22:57:00,73.1,65.4,30.12,NE,45,3.1,3.5,77,0.00,,FEW060,0.00,VWS V14.01,2013-06-05 02:57:00,
2013-06-04 23:02:00,72.9,65.2,30.12,ENE,68,2.6,2.6,77,0.00,,FEW042,0.00,VWS V14.01,2013-06-05 03:02:00,
2013-06-04 23:07:00,72.7,65.4,30.08,SE,135,1.5,2.6,78,0.00,,FEW042,0.00,VWS V14.01,2013-06-05 03:07:00,
2013-06-04 23:12:00,72.6,65.3,30.12,NNE,22,2.6,2.6,78,0.00,,FEW042,0.00,VWS V14.01,2013-06-05 03:12:00,
2013-06-04 23:17:00,72.4,65.1,30.12,ESE,112,1.9,2.8,78,0.00,,FEW042,0.00,VWS V14.01,2013-06-05 03:17:00,
2013-06-04 23:22:00,72.4,65.1,30.12,NE,45,4.2,4.2,78,0.00,,FEW042,0.00,VWS V14.01,2013-06-05 03:22:00,
2013-06-04 23:27:00,72.2,64.9,30.12,ENE,68,1.5,2.6,78,0.00,,FEW042,0.00,VWS V14.01,2013-06-05 03:27:00,
2013-06-04 23:32:00,72.0,64.8,30.12,NE,45,1.5,2.6,78,0.00,,FEW042,0.00,VWS V14.01,2013-06-05 03:32:00,
2013-06-04 23:37:00,72.0,64.8,30.12,East,90,1.9,2.6,78,0.00,,FEW042,0.00,VWS V14.01,2013-06-05 03:37:00,
2013-06-04 23:42:00,72.0,64.8,30.12,NE,45,1.5,1.5,78,0.00,,FEW042,0.00,VWS V14.01,2013-06-05 03:42:00,
2013-06-04 23:47:00,71.8,64.9,30.12,NE,45,2.4,3.1,79,0.00,,FEW042,0.17,VWS V14.01,2013-06-05 03:47:00,
2013-06-04 23:52:00,71.7,64.5,30.13,East,90,3.1,3.1,78,0.00,,FEW042,0.00,VWS V14.01,2013-06-05 03:52:00,
2013-06-04 23:57:00,71.7,64.5,30.13,ENE,68,2.2,2.2,78,0.00,,FEW042,0.00,VWS V14.01,2013-06-05 03:57:00,